Regional Weather Roundup
Issued by NWS Newport/Morehead, NC

Home | Current Version | Previous Version | Text Only | Print | Product List | Glossary On
Versions: 1 2 3 4 5 6 7 8 9 10 11 12 13 14 15 16 17 18 19 20 21 22 23 24 25 26 27 28 29 30 31 32 33 34 35 36 37 38 39 40 41 42 43 44 45 46 47 48 49 50
000
ASUS42 KMHX 010725
RWRMHX
WEATHER ROUNDUP FOR EASTERN NORTH CAROLINA
NATIONAL WEATHER SERVICE NEWPORT/MOREHEAD CITY NC
300 AM EDT WED JUL 01 2015

NOTE: "FAIR" INDICATES FEW OR NO CLOUDS BELOW 12,000 FEET
WITH NO SIGNIFICANT WEATHER AND/OR OBSTRUCTIONS TO VISIBILITY

NCZ015>017-031-032-045>047-102-103-010800-
NORTH COAST

CITY           SKY/WX    TMP DP  RH WIND       PRES   REMARKS
EDENTON        MOCLDY    78  67  70 SW12      29.92S
ELIZABETH CITY FOG       72  68  87 SW7       29.90R VSB 1/2
KITTY HAWK     PTSUNNY   79  69  72 SW9       29.90R
MANTEO         MOCLDY    78  71  78 SW13      29.92R

$$

NCZ045>047-081-094-103-104-010800-
CENTRAL COAST

CITY           SKY/WX    TMP DP  RH WIND       PRES   REMARKS
FRISCO         PTCLDY    79  73  82 SW15G25   29.93F
SWANQUARTER      N/A     81 N/A N/A SW16G22   29.91R

$$

NCZ095-097-098-100-101-010800-
SOUTHERN COAST

CITY           SKY/WX    TMP DP  RH WIND       PRES   REMARKS
BEAUFORT       MOCLDY    80  75  84 SW20      29.95R
CEDAR ISLAND     N/A     79 N/A N/A SW6G18    29.97S
JACKSONVILLE   MOCLDY    75  69  81 W5        29.95R
PINEY ISLAND   CLOUDY   N/A N/A N/A SW13      29.94R
WILMINGTON     PTCLDY    76  69  79 SW9       29.95F


$$

NCZ011>013-027>030-043-044-078>080-089-090>093-098-010800-
COASTAL PLAIN

CITY           SKY/WX    TMP DP  RH WIND       PRES   REMARKS
AHOSKIE        CLEAR     68  66  94 S6        29.90S
CLINTON        PTCLDY    69  69 100 SW3       29.95S
ELIZABETHTOWN  PTCLDY    71  70  97 SW5       29.95F
GOLDSBORO      MOCLDY    72  69  90 SW5       29.92S
GREENVILLE     MOCLDY    73  66  78 SW8       29.94F
HAVELOCK       MOCLDY    80  73  79 SW12      29.95R
KENANSVILLE    MOCLDY    71  66  83 SW3       29.96S
KINSTON        MOCLDY    74  66  75 SW9       29.95S
NEW BERN       CLOUDY    77  70  79 SW5       29.95S
RICHLANDS      MOCLDY    73  64  73 SW3       29.96R
ROCKY MOUNT    PTCLDY    70  68  93 S8        29.92S
WASHINGTON     CLOUDY    75  66  74 SW7       29.94F
WHITEVILLE     PTCLDY    71  68  91 SW3       29.96S

$$

AMZ130-135-150-152-154-156-158-170-250-252-270-ANZ085-086-088-633-658-670-010800-
MARINE OBSERVATIONS

STATION/POSITION TIME  TEMP    WIND        PRES    WAVE   SWELL
                       AIR SEA DIR/SP/G            HT/PER HT/PER
                 (UTC) (F)     (DEG/KT/KT) (MB)    (FT/S) (FT/S)
CHESAPEAKE LIGHT 0700   75     240/ 15/ 16 1012.1
64 E VA BEACH    0650   78 76  220/ 12/ 14 1011.7    4/ 6   3/ 6
DUCK             0700   79 65  230/ 13/ 16 1011.7
2 E DUCK         0611      70                N/A     2/ 8
OREGON INLET     0700   80 82  230/ 14/ 16 1013.0
13E OREGON INLT  0700      73                N/A     4/ 6
HATTERAS CG      0700   80 82  220/ 12/ 19 1013.4
DIAMOND BUOY     0650   82 82  210/ 19/ 23 1013.4    6/ 6   2/13
CAPE LOOKOUT     0700   80     210/ 14/ 20 1013.8
BEAUFORT LAB     0700   81 81  220/  9/ 15 1013.4
30 SE NEW RVR IN NOT AVBL
27 SE WRIGHTSVLE 0700      80  230/ 17/ 21   N/A
5 SE WRIGHTSVLE  0608   80 79  230/ 16/ 21 1014.1
225 S CAPE HAT   0650   81 80  230/ 16/ 19 1018.2    6/ 9   3/ 9
41 SE CHARLESTON 0650   81 82  230/ 19/ 23 1015.4    4/ 8   2/ 8

$$


USA.gov is the U.S. government's official web portal to all federal, state and local government web resources and services.